Time,TemperatureF,DewpointF,PressureIn,WindDirection,WindDirectionDegrees,WindSpeedMPH,WindSpeedGustMPH,Humidity,HourlyPrecipIn,Conditions,Clouds,dailyrainin,SoftwareType,DateUTC
2013-06-06 00:03:00,58.0,53.0,30.11,South,186,0.0,-999.0,84,-99.99,,,0.00,weatherlink.com 1.10,2013-06-06 04:03:00,
2013-06-06 00:18:00,58.1,53.0,30.10,South,178,0.0,-999.0,83,-99.99,,,0.00,weatherlink.com 1.10,2013-06-06 04:18:00,
2013-06-06 00:33:00,58.4,53.0,30.10,South,178,0.0,-999.0,83,-99.99,,,0.00,weatherlink.com 1.10,2013-06-06 04:33:00,
2013-06-06 00:48:00,57.5,52.0,30.11,South,177,0.0,-999.0,82,-99.99,,,0.00,weatherlink.com 1.10,2013-06-06 04:48:00,
2013-06-06 01:03:00,56.7,52.0,30.11,South,178,0.0,-999.0,84,-99.99,,,0.00,weatherlink.com 1.10,2013-06-06 05:03:00,
2013-06-06 01:18:00,56.0,52.0,30.11,South,178,0.0,-999.0,85,-99.99,,,0.00,weatherlink.com 1.10,2013-06-06 05:18:00,
2013-06-06 01:33:00,54.9,52.0,30.11,South,178,0.0,-999.0,88,-99.99,,,0.00,weatherlink.com 1.10,2013-06-06 05:33:00,
2013-06-06 01:48:00,54.2,51.0,30.11,South,178,0.0,-999.0,90,-99.99,,,0.00,weatherlink.com 1.10,2013-06-06 05:48:00,
2013-06-06 02:03:00,53.6,51.0,30.11,South,177,0.0,-999.0,91,-99.99,,,0.00,weatherlink.com 1.10,2013-06-06 06:03:00,
2013-06-06 02:18:00,53.6,51.0,30.11,South,179,0.0,-999.0,92,-99.99,,,0.00,weatherlink.com 1.10,2013-06-06 06:18:00,
2013-06-06 02:33:00,53.6,51.0,30.12,South,179,0.0,-999.0,92,-99.99,,,0.00,weatherlink.com 1.10,2013-06-06 06:33:00,
2013-06-06 02:48:00,53.7,52.0,30.12,South,179,0.0,-999.0,92,-99.99,,,0.00,weatherlink.com 1.10,2013-06-06 06:48:00,
2013-06-06 03:03:00,53.8,51.0,30.13,South,179,0.0,-999.0,91,-99.99,,,0.00,weatherlink.com 1.10,2013-06-06 07:03:00,
2013-06-06 03:18:00,53.1,50.0,30.12,South,179,0.0,-999.0,90,-99.99,,,0.00,weatherlink.com 1.10,2013-06-06 07:18:00,
2013-06-06 03:33:00,52.4,50.0,30.13,South,179,0.0,-999.0,91,-99.99,,,0.00,weatherlink.com 1.10,2013-06-06 07:33:00,
2013-06-06 03:48:00,52.1,50.0,30.12,SW,214,0.0,-999.0,93,-99.99,,,0.00,weatherlink.com 1.10,2013-06-06 07:48:00,
2013-06-06 04:03:00,52.6,51.0,30.13,SW,214,0.0,-999.0,94,-99.99,,,0.00,weatherlink.com 1.10,2013-06-06 08:03:00,
2013-06-06 04:18:00,52.4,51.0,30.11,SW,214,0.0,-999.0,93,-99.99,,,0.00,weatherlink.com 1.10,2013-06-06 08:18:00,
2013-06-06 04:33:00,51.7,50.0,30.12,SW,214,0.0,-999.0,93,-99.99,,,0.00,weatherlink.com 1.10,2013-06-06 08:33:00,
2013-06-06 04:48:00,50.8,49.0,30.12,SW,214,0.0,-999.0,94,-99.99,,,0.00,weatherlink.com 1.10,2013-06-06 08:48:00,
2013-06-06 05:03:00,50.1,49.0,30.12,SW,214,0.0,-999.0,95,-99.99,,,0.00,weatherlink.com 1.10,2013-06-06 09:03:00,
2013-06-06 05:18:00,49.7,48.0,30.12,SW,214,0.0,-999.0,95,-99.99,,,0.00,weatherlink.com 1.10,2013-06-06 09:18:00,
2013-06-06 05:33:00,49.6,49.0,30.12,SW,214,0.0,-999.0,96,-99.99,,,0.00,weatherlink.com 1.10,2013-06-06 09:33:00,
2013-06-06 05:48:00,49.6,49.0,30.12,SW,214,0.0,-999.0,96,-99.99,,,0.00,weatherlink.com 1.10,2013-06-06 09:48:00,
2013-06-06 06:03:00,50.2,49.0,30.13,SW,214,0.0,-999.0,96,-99.99,,,0.00,weatherlink.com 1.10,2013-06-06 10:03:00,
2013-06-06 06:18:00,50.6,50.0,30.14,SW,214,0.0,-999.0,97,-99.99,,,0.00,weatherlink.com 1.10,2013-06-06 10:18:00,
2013-06-06 06:33:00,51.5,51.0,30.14,SW,214,0.0,-999.0,97,-99.99,,,0.00,weatherlink.com 1.10,2013-06-06 10:33:00,
2013-06-06 06:48:00,52.7,52.0,30.14,SW,214,0.0,-999.0,97,-99.99,,,0.00,weatherlink.com 1.10,2013-06-06 10:48:00,
2013-06-06 07:03:00,54.0,53.0,30.14,SW,214,0.0,-999.0,96,-99.99,,,0.00,weatherlink.com 1.10,2013-06-06 11:03:00,
2013-06-06 07:18:00,54.7,53.0,30.14,SW,214,0.0,-999.0,95,-99.99,,,0.00,weatherlink.com 1.10,2013-06-06 11:18:00,
2013-06-06 07:33:00,56.3,55.0,30.15,SW,214,0.0,-999.0,94,-99.99,,,0.00,weatherlink.com 1.10,2013-06-06 11:33:00,
2013-06-06 07:48:00,58.6,56.0,30.15,SW,214,0.0,-999.0,91,-99.99,,,0.00,weatherlink.com 1.10,2013-06-06 11:48:00,
2013-06-06 08:03:00,60.7,56.0,30.15,SW,214,0.0,-999.0,84,-99.99,,,0.00,weatherlink.com 1.10,2013-06-06 12:03:00,
2013-06-06 08:18:00,61.9,56.0,30.15,SSW,198,0.0,-999.0,81,-99.99,,,0.00,weatherlink.com 1.10,2013-06-06 12:18:00,
2013-06-06 08:33:00,62.6,56.0,30.15,ENE,76,0.0,-999.0,79,-99.99,,,0.00,weatherlink.com 1.10,2013-06-06 12:33:00,
2013-06-06 08:48:00,63.7,56.0,30.15,ENE,76,0.0,-999.0,77,-99.99,,,0.00,weatherlink.com 1.10,2013-06-06 12:48:00,
2013-06-06 09:03:00,65.3,57.0,30.14,NNE,28,0.0,-999.0,75,-99.99,,,0.00,weatherlink.com 1.10,2013-06-06 13:03:00,
2013-06-06 09:18:00,65.7,55.0,30.14,NNW,345,0.0,-999.0,69,-99.99,,,0.00,weatherlink.com 1.10,2013-06-06 13:18:00,
2013-06-06 09:33:00,67.0,58.0,30.14,NNE,17,0.0,-999.0,73,-99.99,,,0.00,weatherlink.com 1.10,2013-06-06 13:33:00,
2013-06-06 09:48:00,66.8,57.0,30.13,NNW,329,0.0,-999.0,70,-99.99,,,0.00,weatherlink.com 1.10,2013-06-06 13:48:00,
2013-06-06 10:03:00,67.4,56.0,30.13,NNW,340,0.0,-999.0,67,-99.99,,,0.00,weatherlink.com 1.10,2013-06-06 14:03:00,
2013-06-06 10:18:00,67.5,54.0,30.13,NW,319,0.0,-999.0,62,-99.99,,,0.00,weatherlink.com 1.10,2013-06-06 14:18:00,
2013-06-06 10:33:00,68.2,55.0,30.14,South,180,0.0,-999.0,62,-99.99,,,0.00,weatherlink.com 1.10,2013-06-06 14:33:00,
2013-06-06 10:48:00,68.1,52.0,30.13,SSW,195,0.0,-999.0,57,-99.99,,,0.00,weatherlink.com 1.10,2013-06-06 14:48:00,
2013-06-06 11:03:00,68.5,57.0,30.13,South,191,0.0,-999.0,66,-99.99,,,0.00,weatherlink.com 1.10,2013-06-06 15:03:00,
2013-06-06 11:18:00,69.0,55.0,30.13,SSE,148,0.0,-999.0,62,-99.99,,,0.00,weatherlink.com 1.10,2013-06-06 15:18:00,
2013-06-06 11:33:00,69.2,55.0,30.13,East,84,0.0,-999.0,62,-99.99,,,0.00,weatherlink.com 1.10,2013-06-06 15:33:00,
2013-06-06 11:48:00,70.2,57.0,30.12,SSE,161,0.0,-999.0,63,-99.99,,,0.00,weatherlink.com 1.10,2013-06-06 15:48:00,
2013-06-06 12:03:00,70.2,56.0,30.12,SSE,155,0.0,-999.0,60,-99.99,,,0.00,weatherlink.com 1.10,2013-06-06 16:03:00,
2013-06-06 12:18:00,70.4,53.0,30.11,SSW,213,0.0,-999.0,55,-99.99,,,0.00,weatherlink.com 1.10,2013-06-06 16:18:00,
2013-06-06 12:33:00,71.4,59.0,30.11,SE,146,0.0,-999.0,64,-99.99,,,0.00,weatherlink.com 1.10,2013-06-06 16:33:00,
2013-06-06 12:48:00,72.1,56.0,30.10,SSE,154,0.0,-999.0,57,-99.99,,,0.00,weatherlink.com 1.10,2013-06-06 16:48:00,
2013-06-06 13:03:00,72.6,57.0,30.10,SSE,150,0.0,-999.0,59,-99.99,,,0.00,weatherlink.com 1.10,2013-06-06 17:03:00,
2013-06-06 13:18:00,72.1,58.0,30.09,SSE,150,0.0,-999.0,61,-99.99,,,0.00,weatherlink.com 1.10,2013-06-06 17:18:00,
2013-06-06 13:33:00,70.7,60.0,30.09,SSE,157,0.0,-999.0,68,-99.99,,,0.00,weatherlink.com 1.10,2013-06-06 17:33:00,
2013-06-06 13:48:00,71.0,55.0,30.09,SE,142,0.0,-999.0,58,-99.99,,,0.00,weatherlink.com 1.10,2013-06-06 17:48:00,
2013-06-06 14:03:00,71.9,59.0,30.09,SSW,200,0.0,-999.0,63,-99.99,,,0.00,weatherlink.com 1.10,2013-06-06 18:03:00,
2013-06-06 14:18:00,71.7,59.0,30.08,South,169,0.0,-999.0,64,-99.99,,,0.00,weatherlink.com 1.10,2013-06-06 18:18:00,
2013-06-06 14:33:00,70.5,60.0,30.08,SE,140,0.0,-999.0,69,-99.99,,,0.00,weatherlink.com 1.10,2013-06-06 18:33:00,
2013-06-06 14:48:00,70.1,59.0,30.08,SE,142,0.0,-999.0,68,-99.99,,,0.00,weatherlink.com 1.10,2013-06-06 18:48:00,
2013-06-06 15:03:00,69.3,58.0,30.07,ENE,63,0.0,-999.0,67,-99.99,,,0.00,weatherlink.com 1.10,2013-06-06 19:03:00,
2013-06-06 15:18:00,69.4,59.0,30.07,ENE,69,0.0,-999.0,69,-99.99,,,0.00,weatherlink.com 1.10,2013-06-06 19:18:00,
2013-06-06 15:33:00,69.1,58.0,30.07,East,101,0.0,-999.0,68,-99.99,,,0.00,weatherlink.com 1.10,2013-06-06 19:33:00,
2013-06-06 15:48:00,69.0,57.0,30.07,East,100,0.0,-999.0,66,-99.99,,,0.00,weatherlink.com 1.10,2013-06-06 19:48:00,
2013-06-06 16:03:00,69.4,60.0,30.07,SE,144,0.0,-999.0,73,-99.99,,,0.00,weatherlink.com 1.10,2013-06-06 20:03:00,
2013-06-06 16:18:00,68.9,57.0,30.06,SE,139,0.0,-999.0,67,-99.99,,,0.00,weatherlink.com 1.10,2013-06-06 20:18:00,
2013-06-06 16:34:00,68.1,59.0,30.06,SSE,147,0.0,-999.0,73,-99.99,,,0.00,weatherlink.com 1.10,2013-06-06 20:34:00,
2013-06-06 16:48:00,67.6,59.0,30.06,South,182,0.0,-999.0,75,-99.99,,,0.00,weatherlink.com 1.10,2013-06-06 20:48:00,
2013-06-06 17:03:00,67.3,58.0,30.07,South,178,0.0,-999.0,71,-99.99,,,0.00,weatherlink.com 1.10,2013-06-06 21:03:00,
2013-06-06 17:18:00,67.0,58.0,30.07,SSE,159,0.0,-999.0,72,-99.99,,,0.00,weatherlink.com 1.10,2013-06-06 21:18:00,
2013-06-06 17:33:00,66.4,59.0,30.07,SSW,192,0.0,-999.0,76,-99.99,,,0.00,weatherlink.com 1.10,2013-06-06 21:33:00,
2013-06-06 17:48:00,66.0,56.0,30.07,SSW,197,0.0,-999.0,71,-99.99,,,0.00,weatherlink.com 1.10,2013-06-06 21:48:00,
2013-06-06 18:03:00,66.1,55.0,30.07,SSW,197,0.0,-999.0,67,-99.99,,,0.00,weatherlink.com 1.10,2013-06-06 22:03:00,
2013-06-06 18:18:00,65.7,56.0,30.07,SE,129,0.0,-999.0,72,-99.99,,,0.00,weatherlink.com 1.10,2013-06-06 22:18:00,
2013-06-06 18:33:00,64.8,56.0,30.08,South,186,0.0,-999.0,73,-99.99,,,0.00,weatherlink.com 1.10,2013-06-06 22:33:00,
2013-06-06 18:48:00,64.1,57.0,30.07,SSE,158,0.0,-999.0,78,-99.99,,,0.00,weatherlink.com 1.10,2013-06-06 22:48:00,
2013-06-06 19:03:00,63.8,56.0,30.08,South,174,0.0,-999.0,75,-99.99,,,0.00,weatherlink.com 1.10,2013-06-06 23:03:00,
2013-06-06 19:18:00,63.2,56.0,30.08,South,175,0.0,-999.0,77,-99.99,,,0.00,weatherlink.com 1.10,2013-06-06 23:18:00,
2013-06-06 19:33:00,62.7,55.0,30.08,South,175,0.0,-999.0,77,-99.99,,,0.00,weatherlink.com 1.10,2013-06-06 23:33:00,
2013-06-06 19:48:00,61.9,54.0,30.08,South,175,0.0,-999.0,74,-99.99,,,0.00,weatherlink.com 1.10,2013-06-06 23:48:00,
2013-06-06 20:03:00,61.4,54.0,30.09,South,175,0.0,-999.0,77,-99.99,,,0.00,weatherlink.com 1.10,2013-06-07 00:03:00,
2013-06-06 20:18:00,60.9,54.0,30.09,South,175,0.0,-999.0,79,-99.99,,,0.00,weatherlink.com 1.10,2013-06-07 00:18:00,
2013-06-06 20:33:00,60.6,54.0,30.10,South,177,0.0,-999.0,80,-99.99,,,0.00,weatherlink.com 1.10,2013-06-07 00:33:00,
2013-06-06 20:48:00,60.4,55.0,30.10,South,177,0.0,-999.0,82,-99.99,,,0.00,weatherlink.com 1.10,2013-06-07 00:48:00,
2013-06-06 21:03:00,60.1,55.0,30.09,South,177,0.0,-999.0,84,-99.99,,,0.00,weatherlink.com 1.10,2013-06-07 01:03:00,
2013-06-06 21:18:00,59.7,55.0,30.09,South,177,0.0,-999.0,84,-99.99,,,0.00,weatherlink.com 1.10,2013-06-07 01:18:00,
2013-06-06 21:33:00,59.4,54.0,30.09,South,177,0.0,-999.0,81,-99.99,,,0.00,weatherlink.com 1.10,2013-06-07 01:33:00,
2013-06-06 21:48:00,58.7,55.0,30.07,South,177,0.0,-999.0,86,-99.99,,,0.00,weatherlink.com 1.10,2013-06-07 01:48:00,
2013-06-06 22:03:00,58.2,54.0,30.09,South,177,0.0,-999.0,86,-99.99,,,0.00,weatherlink.com 1.10,2013-06-07 02:03:00,
2013-06-06 22:18:00,57.9,54.0,30.08,South,177,0.0,-999.0,86,-99.99,,,0.00,weatherlink.com 1.10,2013-06-07 02:18:00,
2013-06-06 22:33:00,57.9,54.0,30.07,South,177,0.0,-999.0,85,-99.99,,,0.00,weatherlink.com 1.10,2013-06-07 02:33:00,
2013-06-06 22:48:00,57.6,54.0,30.07,South,177,0.0,-999.0,86,-99.99,,,0.00,weatherlink.com 1.10,2013-06-07 02:48:00,
2013-06-06 23:04:00,57.3,53.0,30.07,South,177,0.0,-999.0,86,-99.99,,,0.00,weatherlink.com 1.10,2013-06-07 03:04:00,
2013-06-06 23:18:00,56.8,53.0,30.07,South,177,0.0,-999.0,88,-99.99,,,0.00,weatherlink.com 1.10,2013-06-07 03:18:00,
2013-06-06 23:33:00,56.1,54.0,30.08,South,177,0.0,-999.0,91,-99.99,,,0.00,weatherlink.com 1.10,2013-06-07 03:33:00,
2013-06-06 23:48:00,55.8,54.0,30.08,South,177,0.0,-999.0,93,-99.99,,,0.01,weatherlink.com 1.10,2013-06-07 03:48:00,